Location: Borotín
(49.5055°N, 14.6142°E)
Time: 07:17:44
(UTC+00:00)

Cosmos 1140 Rocket - Pass Details

Date: 27 May 2022
Orbit: 743 x 767 km, 74.1° (Epoch: 28 June)

Event Time Altitude Azimuth Distance (km) Brightness Sun altitude
Rises 02:14:55 0° 333° (NNW) 3,249 7.0 -6.9°
Reaches altitude 10° 02:17:21 10° 329° (NNW) 2,318 6.2 -6.6°
Maximum altitude 02:22:28 54° 253° (WSW) 934 3.7 -6.0°
Drops below altitude 10° 02:27:32 10° 177° (S) 2,297 5.6 -5.4°
Sets 02:29:56 0° 173° (S) 3,217 6.4 -5.2°
